DECAYED
Showing default

RAPIS-1, 43932 (Decayed)

Orbit data source: Space-Track

RAPIS-1, 43932 was a payload satellite owned by JAXA (JP) in LEO that was launched on Fri, 18 Jan 2019 UTC via an EPSILON launch vehicle from the Kagoshima Space Center University Of Tokyo (KSCUT). Payloads include a variety of satellites, spacecraft, and rockets equipped with specific instruments for various scientific and technological missions. These include communications satellites like Starlink; space stations such as the ISS; scientific satellites like the Hubble; Earth observation satellites from companies like Planet Labs, Umbra, and HawkEye 360; GPS; miniature CubeSats for education and research; and military/defense satellites.

Not visible in the next 10 days
RAPIS-1 details
Identifier
43932, 2019-003A
Orbit
Decayed
Last TLE update2 months ago
Origin
Flag of JPJAXA (JP / JPN)
ManufacturerJAXA
MissionDecayed Civil Technology
Bus & MotorRAPIS, Unknown motor
Mass200 kg wet, 200 kg dry
Launch date (UTC)
2019-01-18 (6 years ago)
Launch vehicle
EPSILON
Launch site
Kagoshima Space Center University Of Tokyo (KSCUT)
Object type
Payload
Rocket body
Debris
Shape & HBRBox + 1 Pan, 2.5 m
Radar Cross Section1.908 m², Medium (>0.1 m² and < 1m²)

Expand to show TLE details & history

TLE from 2 months ago
0 RAPIS-1
1 43932U 19003A   24269.25296083  .15421290  24407-5  12290-2 0  9994
2 43932  97.1655 259.2580 0008766 254.9296 123.1605 16.40055852315048
Epoch: 2024-09-25T06:04Z
Definitive object data (Epoch: 2024-09-25T06:04:15.815Z)
Latitude18.01874°
Longitude161.30645°
Altitude171.467 km
Speed7.803 km/s
True Right ascension17h 07m 42s
True Declination17° 54' 32"
Sunlit
Object was in daylight at TLE epoch
Visualization observer readout
Observer readout values are unavailable because the object's trajectory could not be propagated. This is usually caused when the trajectory data is faulty or the object's orbit has decayed.
Visualization observer readout
Observer readout values are unavailable because the object's trajectory could not be propagated. This is usually caused when the trajectory data is faulty or the object's orbit has decayed.
Orbital elements
Apogee altitude168.185 km
Perigee altitude156.718 km
Semi-major axis6,540.588 km
Eccentricity0.0008766
Inclination97.1655°
RAAN259.258°
Arg. of periapsis254.9296°
True anomaly123.24454°
Mean anomaly123.1605°
Eccentric anomaly123.20253°
Mean motion4.10316 °/min
BSTAR0.001229
Orbital period87.74 mins
Loading maneuver chart data...
Loading historical data...
Loading historical data...
Loading historical data...
Loading historical data...
Loading historical data...
Loading historical data...
Loading historical data...

RAPIS-1 Visibility forecast

Observer location: undefined°, undefined

This satellite is decayed
Span
Click to sort rows by Start time (UTC) header in descending order
Start Az.
Max El. time (UTC)
Max El. Az.
Max El.
End time (UTC)
End Az.
|